Weather in Ballina

Australia     28°51′58″S   153°33′47″E
temp.,
°C
wind,
m/s
gust,
m/s
humid.,
%
clouds,
%
prec.,
mm/h
press.,
hPa
HPBL,
m
7 march, sun
sun723:00+19s118999 0.5 101459
02:00+18sw119696 1.3 101323
05:00+17wsw129889 1.4 101375
08:00+18wsw119744 0.3 101589
11:00+24sse107439 1.0 1016653
14:00+25ene336328 0.6 10141064
17:00+24ne466746 0.9 10131005
20:00+21nne388032 0.0 1015426
8 march, mon
mon823:00+20nne288317 0.0 1017345
02:00+20n278582 0.0 1015332
05:00+19nnw148891 0.1 1016186
08:00+20nw128896 0.1 101799
11:00+27n355849 0.1 10171237
14:00+28nne346086 0.3 10151275
17:00+26nne356862 1.1 1014812
20:00+20n289787 2.4 1015259
9 march, tue
tue923:00+20n3109793 4.6 1017356
02:00+19n269673 0.1 1015179
05:00+19nnw269066 0.1 1015222
08:00+20nnw138952 0.0 1016149
11:00+27nnw245976 0.0 1016916
14:00+29nnw1369100 0.6 10141339
17:00+28n236463 1.9 1013820
20:00+22n249623 1.0 101598
10 march, wed
wed1023:00+20n129854 1.1 101771
02:00+19w129970 0.0 101644
05:00+18w129941 0.0 101648
08:00+20sw129717 0.0 1018105
11:00+27sse226225 0.0 1019807
14:00+28ese335631 0.3 10171062
17:00+27ese336017 0.6 1016949
20:00+21ne12871 0.1 101839
11 march, thu
thu1123:00+20nne119527 1.1 101928
02:00+20nnw119898 3.0 101835
05:00+19w119998 4.1 101728
08:00+20wsw2298100 0.1 101996
11:00+24nne258299 1.9 1018639
14:00+23nne379297 2.8 1016642
17:00+26nne476997 3.6 1014980
20:00+21nne399482 1.6 1015381